Regional Weather Roundup
Issued by NWS

Home | Current Version | Previous Version | Graphics & Text | Print | Product List | Glossary On
Versions: 1 2 3 4 5 6 7 8 9 10 11 12 13 14 15 16 17 18 19 20 21 22 23 24 25 26 27 28 29 30 31 32 33 34 35 36 37 38 39 40 41 42 43 44 45 46 47 48 49 50
733
ASUS43 KTOP 240408
RWRKS

WEATHER ROUNDUP FOR KANSAS
NATIONAL WEATHER SERVICE GOODLAND KS
1100 PM CDT MON APR 23 2018

NOTE:  "FAIR" INDICATES FEW OR NO CLOUDS BELOW 12,000 FEET WITH NO
SIGNIFICANT WEATHER AND/OR OBSTRUCTIONS TO VISIBILITY.

KSZ001>006-013>018-027>032-041>047-240500-
NORTHWEST KANSAS

CITY           SKY/WX    TMP DP  RH WIND       PRES   REMARKS
GOODLAND       CLEAR     47  40  76 SE9       30.05R
HAYS           CLEAR     53  42  66 SE6       30.08S
HILL CITY      CLEAR     54  42  64 SE6       30.08R
RUSSELL        CLEAR     57  42  57 S5        30.07R
$$

KSZ061>065-074>080-084>089-240500-
SOUTHWEST KANSAS

CITY           SKY/WX    TMP DP  RH WIND       PRES   REMARKS
DODGE CITY     CLOUDY    54  41  61 E8        30.07S
ELKHART        CLEAR     56  47  72 SE12      30.05S
GARDEN CITY    CLEAR     52  42  69 SE10      30.05S
GREAT BEND     CLEAR     55  45  68 CALM      30.09R
LIBERAL        CLEAR     57  43  59 E14       30.05S
PRATT          CLEAR     60  43  54 SE3       30.08F
$$

KSZ066>073-081>083-090>101-240500-
SOUTHEAST KANSAS

CITY           SKY/WX    TMP DP  RH WIND       PRES   REMARKS
CHANUTE        CLEAR     56  40  55 NE7       30.05R
COFFEYVILLE    CLEAR     54  48  80 N5        30.03S
HUTCHINSON     CLEAR     49  44  83 CALM      30.06S
MEDICINE LODGE   N/A     60  46  59 E6        30.07S
NEWTON         CLEAR     59  40  49 N3        30.07S
PARSONS        CLEAR     49  46  90 CALM      30.04S
WICHITA INTL   PTCLDY    57  45  64 NW5       30.06R
WICHITA JABRA  CLEAR     59  43  55 NW5       30.06R
WICHITA MCCONL CLEAR     60  41  49 CALM      30.06R
WINFIELD       CLEAR     55  51  86 CALM      30.06S
$$

KSZ007>012-019>026-033>040-048>060-102>105-240500-
NORTHEAST KANSAS

CITY           SKY/WX    TMP DP  RH WIND       PRES   REMARKS
CONCORDIA      CLOUDY    58  33  39 S3        30.07S
EMPORIA        CLEAR     59  36  42 NE3       30.04S
LAWRENCE       CLEAR     50  37  61 N3        30.04S
MANHATTAN      CLEAR     52  38  58 SW3       30.06R
MARYSVILLE     CLEAR     54  32  43 E5        30.07S
OLATHE IND     CLEAR     60  34  37 E5        30.05S
OLATHE EXE     CLEAR     61  33  35 E5        30.04S
SALINA         CLEAR     57  45  64 W3        30.07R
TOPEKA BILLARD CLEAR     56  37  49 CALM      30.04S
TOPEKA FORBES  CLEAR     49  38  65 NE3       30.04S
$$




USA.gov is the U.S. government's official web portal to all federal, state and local government web resources and services.